Location: Asheville, NC
(35.6000°N, 82.5500°W)
Time: 14:08:20
(UTC-04:00)

PCSat - Pass Details

Date: 18 March 2018
Orbit: 784 x 795 km, 67.1° (Epoch: 18 June)

Event Time Altitude Azimuth Distance (km) Brightness Sun altitude
Rises 22:18:41 0° 227° (SW) 3,258 13.0 -32.0°
Reaches altitude 10° 22:21:15 10° 236° (SW) 2,334 12.3 -32.5°
Maximum altitude 22:26:11 37° 303° (WNW) 1,211 10.9 -33.4°
Drops below altitude 10° 22:31:09 10° 10° (N) 2,352 12.2 -34.3°
Sets 22:33:45 0° 19° (NNE) 3,286 12.9 -34.8°
